Location: Unspecified
(48.1371°N, 0.0000°E)
Time: 02:06:40
(UTC+00:00)

Vanguard 1 - All Passes

Search period start: 04 April 2026 00:00
Search period end: 14 April 2026 00:00
Orbit: 654 x 3817 km, 34.2° (Epoch: 28 March)

Date Brightness Start Highest point End Pass type
(mag) Time Alt. Az. Time Alt. Az. Time Alt. Az.
4 Apr - 01:36:28 10° SSW 01:50:57 28° SSE 02:00:37 10° ESE visible
4 Apr - 03:59:08 10° WSW 04:12:34 37° S 04:20:28 10° ESE visible
4 Apr - 06:23:51 10° WSW 06:32:38 28° SSW 06:38:16 10° SE daylight
4 Apr - 23:37:10 10° S 23:47:58 17° SE 23:56:43 10° ESE visible
5 Apr - 01:54:39 10° SW 02:10:13 33° SSE 02:20:10 10° ESE visible
5 Apr - 04:18:20 10° WSW 04:31:44 39° S 04:39:31 10° ESE visible
5 Apr - 06:43:29 10° WSW 06:51:31 25° SSW 06:56:51 10° SSE daylight
5 Apr - 23:53:19 10° S 00:07:08 22° SSE 00:17:38 10° ESE visible
6 Apr - 02:13:11 10° SW 02:29:29 37° SSE 02:39:33 10° ESE visible
6 Apr - 04:37:41 10° WSW 04:50:51 39° S 04:58:30 10° ESE visible
6 Apr - 07:03:17 10° WSW 07:10:17 21° SSW 07:15:11 10° SSE daylight
7 Apr - 00:10:26 10° SSW 00:26:19 27° SSE 00:37:49 10° ESE visible
7 Apr - 02:32:01 10° SW 02:48:45 40° S 02:58:49 10° ESE visible
7 Apr - 04:57:09 10° WSW 05:09:55 37° SSW 05:17:24 10° SE visible
7 Apr - 07:23:25 10° WSW 07:28:58 17° SW 07:33:09 10° S daylight
7 Apr - 22:14:15 10° SSE 22:23:06 14° SE 22:30:58 10° ESE visible
8 Apr - 00:28:11 10° SSW 00:45:32 32° SSE 00:57:37 10° E visible
8 Apr - 02:51:05 10° WSW 03:08:00 43° S 03:17:58 10° ESE visible
8 Apr - 05:16:42 10° WSW 05:28:55 35° SSW 05:36:12 10° SE daylight
8 Apr - 07:44:17 10° WSW 07:47:32 12° SW 07:50:17 10° SSW daylight
8 Apr - 22:28:58 10° S 22:42:06 19° SE 22:53:09 10° ESE visible
9 Apr - 00:46:23 10° SW 01:04:47 37° SSE 01:17:10 10° E visible
9 Apr - 03:10:20 10° WSW 03:27:13 44° S 03:37:03 10° ESE visible
9 Apr - 05:36:22 10° W 05:47:49 31° SSW 05:54:50 10° SSE daylight
9 Apr - 22:45:19 10° S 23:01:08 24° SE 23:13:56 10° E visible
10 Apr - 01:04:56 10° SW 01:24:03 41° SSE 01:36:33 10° E visible
10 Apr - 03:29:43 10° WSW 03:46:23 45° S 03:56:04 10° ESE visible
10 Apr - 05:56:10 10° W 06:06:36 27° SSW 06:13:17 10° SSE daylight
10 Apr - 23:02:32 10° SSW 23:20:13 30° SSE 23:34:06 10° E visible
11 Apr - 01:23:45 10° SW 01:43:20 45° S 01:55:51 10° ESE visible
11 Apr - 03:49:13 10° WSW 04:05:31 43° SSW 04:15:00 10° SE visible
11 Apr - 06:16:09 10° W 06:25:17 22° SW 06:31:28 10° S daylight
11 Apr - 21:06:44 10° SSE 21:16:54 15° SE 21:26:24 10° ESE visible
11 Apr - 23:20:18 10° SSW 23:39:22 35° SSE 23:53:54 10° E visible
12 Apr - 01:42:49 10° WSW 02:02:37 47° S 02:15:02 10° ESE visible
12 Apr - 04:08:48 10° W 04:24:33 41° SSW 04:33:49 10° SE visible
12 Apr - 06:36:31 10° W 06:43:50 18° SW 06:49:12 10° S daylight
12 Apr - 21:21:43 10° S 21:35:43 20° SE 21:48:27 10° E visible
12 Apr - 23:38:29 10° SW 23:58:34 40° SSE 00:13:29 10° E visible
13 Apr - 02:02:03 10° WSW 02:21:53 49° S 02:34:09 10° ESE visible
13 Apr - 04:28:28 10° W 04:43:30 37° SSW 04:52:31 10° SE visible
13 Apr - 06:57:41 10° WSW 07:02:17 13° SW 07:06:03 10° SSW daylight
13 Apr - 21:38:09 10° S 21:54:35 25° SE 22:09:17 10° E visible
